timestamp,surface_pressure_avg,surface_temp_avg,battery_voltage,lat,long
2020-01-28 00:09:01+00:00,315.9313,0.4,12.57,47.84626,-54.09684
2020-01-28 00:19:01+00:00,317.6597,0.4,12.57,47.84626,-54.09684
2020-01-28 00:29:01+00:00,322.223,0.4,12.57,47.84626,-54.09684
2020-01-28 00:39:01+00:00,329.208,0.4,12.57,47.84626,-54.09684
2020-01-28 00:49:01+00:00,336.5596,0.4,12.57,47.84626,-54.09684
2020-01-28 00:59:01+00:00,334.4863,0.4,12.57,47.84626,-54.09684
2020-01-28 01:09:01+00:00,333.5312,0.4,12.57,47.84626,-54.09684
2020-01-28 01:19:01+00:00,339.298,0.4,12.57,47.84626,-54.09684
2020-01-28 01:29:01+00:00,347.4097,0.4,12.57,47.84626,-54.09684
2020-01-28 01:39:01+00:00,348.5647,0.41,12.57,47.84626,-54.09684
2020-01-28 01:49:01+00:00,346.4412,0.44,12.57,47.84626,-54.09684
2020-01-28 01:59:01+00:00,345.9412,0.46,12.57,47.84626,-54.09684
2020-01-28 02:09:01+00:00,348.9263,0.47,12.57,47.84626,-54.09684
2020-01-28 02:19:01+00:00,345.9146,0.48,12.57,47.84626,-54.09684
2020-01-28 02:29:01+00:00,341.8912,0.47,12.57,47.84626,-54.09684
2020-01-28 02:39:01+00:00,341.858,0.47,12.57,47.84626,-54.09684
2020-01-28 02:49:01+00:00,335.9413,0.47,12.57,47.84626,-54.09684
2020-01-28 02:59:01+00:00,332.1413,0.47,12.57,47.84626,-54.09684
2020-01-28 03:09:01+00:00,332.0563,0.47,12.57,47.84626,-54.09684
2020-01-28 03:19:01+00:00,332.4430000000001,0.45,12.57,47.84626,-54.09684
2020-01-28 03:29:01+00:00,328.4929,0.4,12.57,47.84626,-54.09684
2020-01-28 03:39:01+00:00,322.8129,0.4,12.57,47.84626,-54.09684
2020-01-28 03:49:01+00:00,322.8746,0.4,12.57,47.84626,-54.09684
2020-01-28 03:59:01+00:00,320.3964,0.44,12.57,47.84626,-54.09684
2020-01-28 04:09:01+00:00,313.553,0.48,12.57,47.84626,-54.09684
2020-01-28 04:19:01+00:00,306.883,0.5,12.57,47.84626,-54.09684
2020-01-28 04:29:01+00:00,300.7697,0.5,12.57,47.84626,-54.09684
2020-01-28 04:39:01+00:00,291.1348,0.5,12.57,47.84626,-54.09684
2020-01-28 04:49:01+00:00,284.728,0.49,12.57,47.84626,-54.09684
2020-01-28 04:59:01+00:00,277.4981,0.49,12.57,47.84626,-54.09684
2020-01-28 05:09:01+00:00,270.1481,0.4,12.57,47.84626,-54.09684
2020-01-28 05:19:01+00:00,262.9564,0.3,12.57,47.84626,-54.09684
2020-01-28 05:29:01+00:00,257.7197,0.3,12.57,47.84626,-54.09684
2020-01-28 05:39:01+00:00,247.1997,0.3,12.57,47.84626,-54.09684
2020-01-28 05:49:01+00:00,237.6564,0.3,12.57,47.84626,-54.09684
2020-01-28 05:59:01+00:00,234.7431,0.32,12.57,47.84626,-54.09684
2020-01-28 06:09:01+00:00,229.1881,0.33,12.57,47.84626,-54.09684
2020-01-28 06:19:01+00:00,218.9598,0.37,12.57,47.84626,-54.09684
2020-01-28 06:29:01+00:00,213.6415,0.4,12.57,47.84626,-54.09684
2020-01-28 06:39:01+00:00,211.8581,0.4,12.57,47.84626,-54.09684
2020-01-28 06:49:01+00:00,212.3298,0.42,12.57,47.84626,-54.09684
2020-01-28 06:59:01+00:00,214.6465,0.45,12.57,47.84626,-54.09684
2020-01-28 07:09:01+00:00,213.5948,0.49,12.57,47.84626,-54.09684
2020-01-28 07:19:01+00:00,207.8598,0.49,12.57,47.84626,-54.09684
2020-01-28 07:29:01+00:00,207.6164,0.5,12.57,47.84626,-54.09684
2020-01-28 07:39:01+00:00,215.5798,0.5,12.57,47.84626,-54.09684
2020-01-28 07:49:01+00:00,223.5398,0.5,12.57,47.84626,-54.09684
2020-01-28 07:59:01+00:00,225.1398,0.5,12.57,47.84626,-54.09684
2020-01-28 08:09:01+00:00,221.3698,0.5,12.57,47.84626,-54.09684
2020-01-28 08:19:01+00:00,215.8564,0.5,12.57,47.84626,-54.09684
2020-01-28 08:29:01+00:00,215.6048,0.5,12.57,47.84626,-54.09684
2020-01-28 08:39:01+00:00,225.3381,0.5,12.57,47.84626,-54.09684
2020-01-28 08:49:01+00:00,233.0131,0.5,12.57,47.84626,-54.09684
2020-01-28 08:59:01+00:00,236.9831,0.5,12.57,47.84626,-54.09684
2020-01-28 09:09:01+00:00,242.313,0.5,12.57,47.84626,-54.09684
2020-01-28 09:19:01+00:00,243.5797,0.5,12.57,47.84626,-54.09684
2020-01-28 09:29:01+00:00,248.8781,0.5,12.57,47.84626,-54.09684
2020-01-28 09:39:01+00:00,253.1347,0.53,12.57,47.84626,-54.09684
2020-01-28 09:49:01+00:00,255.1031,0.59,12.57,47.84626,-54.09684
2020-01-28 09:59:01+00:00,257.223,0.59,12.57,47.84626,-54.09684
2020-01-28 10:09:01+00:00,264.3631,0.6,12.57,47.84626,-54.09684
2020-01-28 10:19:01+00:00,270.5331,0.6,12.57,47.84626,-54.09684
2020-01-28 10:29:01+00:00,273.7331,0.6,12.57,47.84626,-54.09684
2020-01-28 10:39:01+00:00,280.3581,0.6,12.57,47.84626,-54.09684
2020-01-28 10:49:01+00:00,286.748,0.6,12.57,47.84626,-54.09684
2020-01-28 10:59:01+00:00,292.888,0.6,12.57,47.84626,-54.09684
2020-01-28 11:09:01+00:00,298.5547,0.6,12.57,47.84626,-54.09684
2020-01-28 11:19:01+00:00,303.3597,0.6,12.49,47.84626,-54.09684
2020-01-28 11:29:01+00:00,309.8597,0.6,12.49,47.84626,-54.09684
2020-01-28 11:39:01+00:00,319.3363,0.6,12.49,47.84626,-54.09684
2020-01-28 11:49:01+00:00,328.023,0.61,12.49,47.84626,-54.09684
2020-01-28 11:59:01+00:00,329.1396,0.6,12.49,47.84626,-54.09684
2020-01-28 12:09:01+00:00,340.8829,0.6,12.49,47.84626,-54.09684
2020-01-28 12:19:01+00:00,351.5163,0.6,12.57,47.84626,-54.09684
2020-01-28 12:29:01+00:00,356.5964,0.6,12.57,47.84626,-54.09684
2020-01-28 12:39:01+00:00,365.5896,0.6,12.57,47.84626,-54.09684
2020-01-28 12:49:01+00:00,378.9029,0.6,12.57,47.84626,-54.09684
2020-01-28 12:59:01+00:00,380.5796,0.64,12.57,47.84626,-54.09684
2020-01-28 13:09:01+00:00,370.2013,0.6,12.57,47.84626,-54.09684
2020-01-28 13:19:01+00:00,371.213,0.6,12.65,47.84626,-54.09684
2020-01-28 13:29:01+00:00,379.8312,0.6,12.65,47.84626,-54.09684
2020-01-28 13:39:01+00:00,379.218,0.6,12.65,47.84626,-54.09684
2020-01-28 13:49:01+00:00,379.7346,0.6,12.65,47.84626,-54.09684
2020-01-28 13:59:01+00:00,382.4128,0.64,12.65,47.84626,-54.09684
2020-01-28 14:09:01+00:00,384.1613,0.6,12.65,47.84626,-54.09684
2020-01-28 14:19:01+00:00,382.2713,0.6,12.89,47.84626,-54.09684
2020-01-28 14:29:01+00:00,379.2263,0.6,12.89,47.84626,-54.09684
2020-01-28 14:39:01+00:00,382.8213,0.6,12.89,47.84626,-54.09684
2020-01-28 14:49:01+00:00,378.4279,0.6,12.89,47.84626,-54.09684
2020-01-28 14:59:01+00:00,375.9412,0.6,12.89,47.84626,-54.09684
2020-01-28 15:09:01+00:00,372.6279,0.41,12.89,47.84626,-54.09684
2020-01-28 15:19:01+00:00,367.1329,0.36,12.89,47.84626,-54.09684
2020-01-28 15:29:01+00:00,362.4913,0.59,12.89,47.84626,-54.09684
2020-01-28 15:39:01+00:00,358.4862,0.6,12.89,47.84626,-54.09684
2020-01-28 15:49:01+00:00,359.9597,0.6,12.89,47.84626,-54.09684
2020-01-28 15:59:01+00:00,355.1562,0.6,12.89,47.84626,-54.09684
2020-01-28 16:09:01+00:00,348.5963,0.6,12.89,47.84626,-54.09684
2020-01-28 16:19:01+00:00,344.408,0.64,13.05,47.84626,-54.09684
2020-01-28 16:29:01+00:00,335.8863,0.63,13.05,47.84626,-54.09684
2020-01-28 16:39:01+00:00,329.0095,0.62,13.05,47.84626,-54.09684
2020-01-28 16:49:01+00:00,327.3013,0.65,13.05,47.84626,-54.09684
2020-01-28 16:59:01+00:00,316.0646,0.6,13.05,47.84626,-54.09684
2020-01-28 17:09:01+00:00,305.5747,0.6,13.05,47.84626,-54.09684
2020-01-28 17:19:01+00:00,301.9615,0.6,13.05,47.84626,-54.09684
2020-01-28 17:29:01+00:00,296.1847,0.6,13.05,47.84626,-54.09684
2020-01-28 17:39:01+00:00,285.1814,0.6,13.05,47.84626,-54.09684
2020-01-28 17:49:01+00:00,275.9647,0.6,13.05,47.84626,-54.09684
2020-01-28 17:59:01+00:00,271.7163,0.57,13.05,47.84626,-54.09684
2020-01-28 18:09:01+00:00,258.0665,0.59,13.05,47.84626,-54.09684
2020-01-28 18:19:01+00:00,244.7564,0.6,12.89,47.84626,-54.09684
2020-01-28 18:29:01+00:00,243.7747,0.58,12.89,47.84626,-54.09684
2020-01-28 18:39:01+00:00,244.7981,0.58,12.89,47.84626,-54.09684
2020-01-28 18:49:01+00:00,231.1514,0.51,12.89,47.84626,-54.09684
2020-01-28 18:59:01+00:00,218.3648,0.5,12.89,47.84626,-54.09684
2020-01-28 19:09:01+00:00,224.1181,0.51,12.89,47.84626,-54.09684
2020-01-28 19:19:01+00:00,223.5098,0.59,12.81,47.84626,-54.09684
2020-01-28 19:29:01+00:00,204.6465,0.59,12.81,47.84626,-54.09684
2020-01-28 19:39:01+00:00,197.1665,0.6,12.81,47.84626,-54.09684
2020-01-28 19:49:01+00:00,212.2064,0.62,12.81,47.84626,-54.09684
2020-01-28 19:59:01+00:00,213.1031,0.6,12.81,47.84626,-54.09684
2020-01-28 20:09:01+00:00,205.9832,0.6,12.81,47.84626,-54.09684
2020-01-28 20:19:01+00:00,214.0148,0.59,12.65,47.84626,-54.09684
2020-01-28 20:29:01+00:00,221.7831,0.6,12.65,47.84626,-54.09684
2020-01-28 20:39:01+00:00,213.6014,0.6,12.65,47.84626,-54.09684
2020-01-28 20:49:01+00:00,214.3964,0.6,12.65,47.84626,-54.09684
2020-01-28 20:59:01+00:00,227.8314,0.7,12.65,47.84626,-54.09684
2020-01-28 21:09:01+00:00,229.8764,0.78,12.65,47.84626,-54.09684
2020-01-28 21:19:01+00:00,226.9414,0.8,12.65,47.84626,-54.09684
2020-01-28 21:29:01+00:00,230.1097,0.8,12.65,47.84626,-54.09684
2020-01-28 21:39:01+00:00,240.7214,0.8,12.65,47.84626,-54.09684
2020-01-28 21:49:01+00:00,245.3398,0.7,12.65,47.84626,-54.09684
2020-01-28 21:59:01+00:00,245.7347,0.7,12.65,47.84626,-54.09684
2020-01-28 22:09:01+00:00,250.6664,0.8,12.65,47.84626,-54.09684
2020-01-28 22:19:01+00:00,256.5798,0.8,12.57,47.84626,-54.09684
2020-01-28 22:29:01+00:00,258.4165,0.8,12.57,47.84626,-54.09684
2020-01-28 22:39:01+00:00,260.9998,0.8,12.57,47.84626,-54.09684
2020-01-28 22:49:01+00:00,271.9264,0.82,12.57,47.84626,-54.09684
2020-01-28 22:59:01+00:00,279.283,0.8,12.57,47.84626,-54.09684
2020-01-28 23:09:01+00:00,280.6346,0.8,12.57,47.84626,-54.09684
2020-01-28 23:19:01+00:00,280.1964,0.8,12.57,47.84626,-54.09684
2020-01-28 23:29:01+00:00,289.2364,0.8,12.57,47.84626,-54.09684
2020-01-28 23:39:01+00:00,297.933,0.81,12.57,47.84626,-54.09684
2020-01-28 23:49:01+00:00,302.3214,0.82,12.57,47.84626,-54.09684
2020-01-28 23:59:01+00:00,303.7813,0.8,12.57,47.84626,-54.09684
